Location: Lawrence Hall of Science
(37.8785°N, 122.2415°W)
Time: 01:10:00
(UTC-07:00)

Cosmos 2151 - Visible Passes

Search period start: 24 March 2017 00:00
Search period end: 03 April 2017 00:00
Orbit: 583 x 601 km, 82.5° (Epoch: 22 March)

Date Brightness Start Highest point End Pass type
(mag) Time Alt. Az. Time Alt. Az. Time Alt. Az.
24 Mar 5.5 21:17:49 10° NNE 21:17:52 10° NNE 21:17:52 10° NNE visible
24 Mar 6.2 22:54:27 10° NNW 22:54:29 10° NNW 22:54:29 10° NNW visible
25 Mar 5.2 21:26:13 10° NNE 21:27:10 15° NNE 21:27:10 15° NNE visible
26 Mar 4.8 21:34:50 10° N 21:36:29 21° NNE 21:36:29 21° NNE visible
27 Mar 4.4 21:43:38 10° N 21:45:52 30° N 21:45:52 30° N visible
28 Mar 4.2 21:52:34 10° NNW 21:55:16 38° NNW 21:55:16 38° NNW visible
29 Mar 4.9 20:26:08 10° NE 20:28:05 13° ENE 20:28:05 13° ENE visible
29 Mar 4.3 22:01:39 10° NNW 22:04:43 37° NW 22:04:43 37° NW visible
30 Mar 4.3 20:34:06 10° NNE 20:37:14 20° ENE 20:37:36 20° E visible
30 Mar 4.8 22:10:54 10° NNW 22:14:14 28° W 22:14:14 28° W visible
31 Mar 3.8 20:42:32 10° NNE 20:46:17 30° ENE 20:47:09 27° E visible
31 Mar 5.4 22:20:25 10° NW 22:23:19 18° W 22:23:48 18° W visible
01 Apr 3.2 20:51:12 10° N 20:55:17 47° E 20:56:47 32° SE visible
01 Apr 5.9 22:30:37 10° WNW 22:32:05 12° W 22:33:26 10° WSW visible
02 Apr 2.8 21:00:00 10° N 21:04:15 76° E 21:06:29 27° SSE visible
